Date String (YYYY-MM-DD hh:mm:ss) UTC,Instrument flags,Ambient pressure (hPa),Sample flow (lpm),Bypass flow (lpm),Sample temperature (°C),Ambient temperature (°C),ASC tube jacket temperature (°C),LED temperature (°C),Box temperature (°C),Sample RH (%),Span deviation,Mass concentration (μg/m³),Mass concentration (μg/m³),Mass concentration (μg/m³)
DateTimeUTC,F1_M11,P_M11,Q1_M11,Q2_M11,T1_M11,T2_M11,T3_M11,T4_M11,T5_M11,U1_M11,ZSPAN_M11,X0_M11,X2_M11,X1_M11
2022-01-06 13:00:00,,0825.6,5.00,0.00,22.1,22.6,00.0,30.9,23.9,04.1,0001.8,0008.65,0004.90,0004.32
2022-01-06 13:01:00,,0825.8,5.00,0.00,22.0,22.2,00.0,31.0,23.7,04.1,0001.9,0008.57,0004.91,0004.32
2022-01-06 13:02:00,,0825.8,4.99,0.00,22.0,21.8,00.0,30.9,23.6,04.1,0002.0,0008.55,0004.92,0004.32
2022-01-06 13:03:00,,0825.9,4.98,0.00,21.9,21.4,00.0,30.9,23.4,04.1,0002.2,0008.60,0004.93,0004.32
2022-01-06 13:04:00,,0825.9,5.01,0.00,21.8,20.9,00.0,30.9,23.3,04.1,0002.4,0008.65,0004.95,0004.34
2022-01-06 13:05:00,,0826.2,5.00,0.00,21.7,20.7,00.0,30.9,23.2,04.1,0002.1,0008.74,0005.00,0004.36
2022-01-06 13:06:00,,0825.9,4.99,0.00,21.8,21.6,00.0,30.9,23.4,04.1,0002.0,0008.69,0004.98,0004.36
2022-01-06 13:07:00,,0825.9,5.01,0.00,21.9,22.4,00.0,30.9,23.7,04.1,0001.8,0008.68,0004.97,0004.36
2022-01-06 13:08:00,,0825.9,4.99,0.00,22.1,22.5,00.0,31.0,23.9,04.1,0001.5,0008.77,0005.01,0004.37
2022-01-06 13:09:00,,0826.0,4.99,0.00,22.0,21.9,00.0,30.9,23.7,04.1,0001.6,0008.91,0005.05,0004.37
2022-01-06 13:10:00,,0826.0,5.02,0.00,21.9,21.4,00.0,30.9,23.5,04.1,0001.9,0008.92,0005.05,0004.37
2022-01-06 13:11:00,,0826.0,4.98,0.00,21.9,20.9,00.0,30.9,23.3,04.1,0002.5,0008.81,0005.04,0004.38
2022-01-06 13:12:00,,0826.0,5.02,0.00,21.8,20.5,00.0,30.9,23.2,04.1,0001.9,0008.85,0005.04,0004.36
2022-01-06 13:13:00,,0826.0,5.00,0.00,21.7,20.3,00.0,30.8,23.1,04.2,0001.5,0008.84,0005.01,0004.34
2022-01-06 13:14:00,,0826.0,5.00,0.00,21.7,20.9,00.0,30.8,23.2,04.2,0001.2,0008.80,0004.98,0004.33
2022-01-06 13:15:00,,0826.0,5.01,0.00,21.8,21.8,00.0,30.9,23.4,04.2,0000.7,0008.75,0004.93,0004.30
2022-01-06 13:16:00,,0826.0,4.99,0.00,21.9,22.6,00.0,30.9,23.7,04.1,0000.7,0008.76,0004.93,0004.28
2022-01-06 13:17:00,,0825.9,5.01,0.00,22.0,22.8,00.0,30.9,23.9,04.1,0000.9,0008.86,0004.98,0004.29
2022-01-06 13:18:00,,0826.0,5.00,0.00,22.0,22.2,00.0,30.9,23.8,04.1,0001.1,0008.82,0004.98,0004.31
2022-01-06 13:19:00,,0826.1,5.00,0.00,22.0,21.7,00.0,30.9,23.6,04.1,0001.1,0008.79,0004.97,0004.31
2022-01-06 13:20:00,,0826.0,4.99,0.00,21.9,21.2,00.0,30.9,23.5,04.1,0001.1,0008.76,0004.98,0004.34
2022-01-06 13:21:00,,0826.0,5.00,0.00,21.8,20.9,00.0,30.9,23.3,04.1,0001.3,0008.69,0004.99,0004.37
2022-01-06 13:22:00,,0826.0,5.00,0.00,21.7,20.5,00.0,30.8,23.2,04.2,0000.9,0008.65,0004.99,0004.38
2022-01-06 13:23:00,,0826.0,5.01,0.00,21.7,20.5,00.0,30.8,23.1,04.2,0001.2,0008.60,0005.02,0004.42
2022-01-06 13:24:00,,0825.9,5.00,0.00,21.7,21.3,00.0,30.8,23.3,04.2,0001.5,0008.65,0005.05,0004.44
2022-01-06 13:25:00,,0825.8,5.00,0.00,21.8,22.2,00.0,30.9,23.6,04.1,0001.5,0008.74,0005.09,0004.47
2022-01-06 13:26:00,,0825.9,5.01,0.00,22.0,22.9,00.0,30.9,23.8,04.1,0001.8,0008.84,0005.15,0004.50
2022-01-06 13:27:00,,0826.0,5.00,0.00,22.1,22.6,00.0,30.9,23.9,04.1,0001.8,0008.98,0005.14,0004.52
2022-01-06 13:28:00,,0826.0,5.00,0.00,22.0,22.1,00.0,30.9,23.7,04.1,0001.7,0009.10,0005.17,0004.53
2022-01-06 13:29:00,,0826.0,5.00,0.00,22.0,21.6,00.0,30.9,23.6,04.1,0001.7,0009.21,0005.20,0004.54
2022-01-06 13:30:00,,0826.2,5.01,0.00,21.9,21.2,00.0,30.9,23.5,04.1,0002.0,0009.15,0005.20,0004.55
2022-01-06 13:31:00,,0826.1,5.00,0.00,21.8,20.9,00.0,30.9,23.3,04.1,0002.0,0009.02,0005.16,0004.55
2022-01-06 13:32:00,,0825.9,4.99,0.00,21.8,20.5,00.0,30.8,23.2,04.2,0001.8,0009.07,0005.17,0004.56
2022-01-06 13:33:00,,0826.0,5.00,0.00,21.7,20.4,00.0,30.8,23.1,04.2,0001.8,0009.14,0005.20,0004.55
2022-01-06 13:34:00,,0825.8,5.00,0.00,21.7,21.2,00.0,30.8,23.3,04.2,0002.3,0009.12,0005.18,0004.54
2022-01-06 13:35:00,,0825.9,5.01,0.00,21.8,22.1,00.0,30.9,23.6,04.1,0002.3,0009.42,0005.20,0004.55
2022-01-06 13:36:00,,0825.9,4.99,0.00,22.0,22.9,00.0,30.9,23.9,04.1,0002.6,0009.50,0005.19,0004.56
2022-01-06 13:37:00,,0826.0,5.02,0.00,22.1,22.8,00.0,30.9,24.0,04.1,0002.5,0009.42,0005.18,0004.57
2022-01-06 13:38:00,,0825.9,5.00,0.00,22.1,22.2,00.0,30.9,23.9,04.1,0002.4,0009.43,0005.23,0004.57
2022-01-06 13:39:00,,0825.9,5.00,0.00,22.0,21.7,00.0,30.9,23.7,04.1,0001.9,0009.27,0005.21,0004.57
2022-01-06 13:40:00,,0826.0,5.01,0.00,21.9,21.2,00.0,30.9,23.5,04.1,0001.7,0009.17,0005.18,0004.57
2022-01-06 13:41:00,,0826.2,4.99,0.00,21.9,20.9,00.0,30.9,23.4,04.1,0000.7,0009.21,0005.19,0004.57
2022-01-06 13:42:00,,0826.1,5.02,0.00,21.8,20.6,00.0,30.8,23.3,04.2,0000.5,0009.40,0005.25,0004.57
2022-01-06 13:43:00,,0826.0,4.98,0.00,21.7,20.4,00.0,30.8,23.2,04.2,0000.5,0009.49,0005.28,0004.56
2022-01-06 13:44:00,,0825.9,5.01,0.00,21.7,21.1,00.0,30.8,23.3,04.2,0000.4,0009.47,0005.27,0004.57
2022-01-06 13:45:00,,0825.7,4.98,0.00,21.9,22.0,00.0,30.9,23.6,04.1,-000.1,0009.51,0005.29,0004.59
2022-01-06 13:46:00,,0825.9,5.00,0.00,22.0,22.8,00.0,30.9,23.9,04.1,0000.1,0009.26,0005.30,0004.60
2022-01-06 13:47:00,,0825.8,5.00,0.00,22.1,23.0,00.0,31.0,24.0,04.1,0000.4,0009.24,0005.33,0004.61
2022-01-06 13:48:00,,0825.8,5.00,0.00,22.2,22.4,00.0,31.0,23.9,04.1,0000.3,0009.20,0005.31,0004.60
2022-01-06 13:49:00,,0825.8,5.00,0.00,22.1,21.8,00.0,31.0,23.7,04.1,0000.9,0009.12,0005.30,0004.61
2022-01-06 13:50:00,,0826.0,5.02,0.00,22.0,21.3,00.0,30.9,23.5,04.1,0001.4,0009.10,0005.28,0004.61
2022-01-06 13:51:00,,0825.9,5.00,0.00,21.9,20.9,00.0,30.9,23.4,04.1,0001.6,0009.17,0005.30,0004.61
2022-01-06 13:52:00,,0826.0,5.00,0.00,21.8,20.6,00.0,30.9,23.2,04.1,0002.1,0009.15,0005.28,0004.60
2022-01-06 13:53:00,,0825.7,5.01,0.00,21.7,20.3,00.0,30.8,23.1,04.2,0002.9,0009.01,0005.25,0004.61
2022-01-06 13:54:00,,0825.8,4.98,0.00,21.7,20.8,00.0,30.8,23.2,04.2,0002.9,0008.97,0005.23,0004.61
2022-01-06 13:55:00,,0825.9,5.00,0.00,21.8,21.8,00.0,30.9,23.5,04.1,0002.9,0009.13,0005.29,0004.62
2022-01-06 13:56:00,,0825.9,4.99,0.00,22.0,22.7,00.0,30.9,23.8,04.1,0002.9,0009.29,0005.33,0004.61
2022-01-06 13:57:00,,0825.8,5.00,0.00,22.1,22.9,00.0,31.0,24.0,04.1,0002.7,0009.33,0005.31,0004.60
2022-01-06 13:58:00,,0825.6,4.99,0.00,22.1,22.2,00.0,31.0,23.8,04.1,0002.6,0009.30,0005.29,0004.58
2022-01-06 13:59:00,,0825.7,5.02,0.00,22.0,21.6,00.0,30.9,23.6,04.1,0002.5,0009.55,0005.34,0004.58
